Tracking 19245 objects as of 19-Aug-2018
HD Live streaming from Space Station
objects crossing your sky now

FENGYUN 1C DEB

Track FENGYUN 1C DEB now!
10-day predictions


NORAD ID: 30400
Int'l Code: 1999-025ADP
Perigee: 733.1 km
Apogee: 1,151.8 km
Inclination: 99.2 °
Period: 103.7 minutes
Semi major axis: 7313 km
RCS: 0.0229 m2 (small)
Launch date: May 10, 1999
Source: People's Republic of China (PRC)
Launch site: Taiyaun Space Center, China (TSC)

Note: This is SATELLITE DEBRIS
aabbcc
Your satellite tracking list
Your tracking list is empty




NASA's NSSDC Master Catalog

Two Line Element Set (TLE):
1 30400U 99025ADP 18229.72006539  .00001033  00000-0  65030-3 0  9990
2 30400  99.1594 143.1617 0286248  62.7082 328.7807 13.88093652582852
Source of the keplerian elements: AFSPC